Seatac, Washington, United States
Lat: 47.45N, Lon: 122.32W
Wx Zone: WAZ508
Local Info
Past Weather Observations for Today

NOTE: This archive is for the closest National Weather Service station to Seatac. Information may differ from the station used for current weather conditions.

Click here for Long-term Archive

Time Weather Temperature Dewpoint Humidity Pressure Winds Precip Visibility
12:53
Overcast
Light Rain
59°F / 15°C 57°F / 14°C 94% 30.06 in
(1018 mb)
S 10.4 mph
(S 17 kph)
0.03 in
(0.76 mm)
7SM
11:53
Overcast
Light Rain
59°F / 15°C 57°F / 14°C 94% 30.04 in
(1017 mb)
SSE 8.1 mph
(SSE 13 kph)
0.20 in
(5.08 mm)
10SM
11:26
Overcast
Light Rain
59°F / 15°C 57°F / 14°C 94% 30.04 in
(1017 mb)
SW 6.9 mph
(SW 11 kph)
0.18 in
(4.57 mm)
8SM
11:11
Overcast
Rain
57°F / 14°C 55°F / 13°C 94% 30.04 in
(1017 mb)
SSW 10.4 mph
(SSW 17 kph)
0.15 in
(3.81 mm)
6SM
10:53
Overcast
Heavy Rain
61°F / 16°C 59°F / 15°C 94% 30.04 in
(1017 mb)
SSW 15 mph
(SSW 24 kph)
0.10 in
(2.54 mm)
2SM
10:49
Overcast
Heavy Rain
63°F / 17°C 61°F / 16°C 94% 30.04 in
(1017 mb)
SW 11.5 mph
(SW 19 kph)
0.08 in
(2.03 mm)
2SM
10:29
Overcast
Light Rain
63°F / 17°C 61°F / 16°C 94% 30.01 in
(1016 mb)
SE 8.1 mph
(SE 13 kph)
0.02 in
(0.51 mm)
3SM
09:53
Overcast
Light Rain
63°F / 17°C 61°F / 16°C 94% 30.01 in
(1016 mb)
SE 9.2 mph
(SE 15 kph)
0.07 in
(1.78 mm)
4SM
09:41
Overcast
Light Rain
63°F / 17°C 61°F / 16°C 94% 30.01 in
(1016 mb)
SSE 4.6 mph
(SSE 7 kph)
0.06 in
(1.52 mm)
2SM
09:16
Overcast
Light Rain
61°F / 16°C 61°F / 16°C 100% 30.01 in
(1016 mb)
S 3.5 mph
(S 6 kph)
0.01 in
(0.25 mm)
2SM
08:53
Overcast
Light Rain
61°F / 16°C 61°F / 16°C 100% 30.04 in
(1017 mb)
S 4.6 mph
(S 7 kph)
0.01 in
(0.25 mm)
2SM
08:48
Overcast
Light Rain
61°F / 16°C 61°F / 16°C 100% 30.01 in
(1016 mb)
SSE 4.6 mph
(SSE 7 kph)
0.01 in
(0.25 mm)
1/2SM
07:53
Overcast
Light Rain
61°F / 16°C 61°F / 16°C 100% 30.01 in
(1016 mb)
SW 3.5 mph
(SW 6 kph)
0.00 in
(0.00 mm)
1/2SM
07:11
Overcast
Fog And Mist
61°F / 16°C 59°F / 15°C 94% 30.01 in
(1016 mb)
ESE 10.4 mph
(ESE 17 kph)
0.00 in
(0.00 mm)
1/2SM
07:09
Overcast
Fog And Mist
61°F / 16°C 59°F / 15°C 94% 30.01 in
(1016 mb)
SE 8.1 mph
(SE 13 kph)
0.00 in
(0.00 mm)
0SM
06:53
Overcast
Light Rain
61°F / 16°C 59°F / 15°C 94% 30.01 in
(1016 mb)
SE 5.8 mph
(SE 9 kph)
0.05 in
(1.27 mm)
7SM
05:53
Overcast
61°F / 16°C 57°F / 14°C 88% 30.04 in
(1017 mb)
SW 4.6 mph
(SW 7 kph)
0.06 in
(1.52 mm)
7SM
05:47
Overcast
Light Rain
59°F / 15°C 57°F / 14°C 94% 30.01 in
(1016 mb)
Calm 0.06 in
(1.52 mm)
7SM
05:33
Overcast
Heavy Rain
59°F / 15°C 57°F / 14°C 94% 30.01 in
(1016 mb)
W 4.6 mph
(W 7 kph)
0.05 in
(1.27 mm)
3SM
05:27
Overcast
Light Rain
59°F / 15°C 57°F / 14°C 94% 30.01 in
(1016 mb)
Variable 5.8 mph
(Variable 9 kph)
0.00 in
(0.00 mm)
7SM
04:53
Overcast
Thunder Storms
59°F / 15°C 57°F / 14°C 94% 29.98 in
(1015 mb)
SSW 3.5 mph
(SSW 6 kph)
- 10SM
04:43
Mostly Cloudy
Thunder Storms
61°F / 16°C 57°F / 14°C 88% 29.98 in
(1015 mb)
SSW 4.6 mph
(SSW 7 kph)
- 8SM
03:53
Overcast
61°F / 16°C 57°F / 14°C 88% 29.98 in
(1015 mb)
Calm - 10SM
02:53
Mostly Cloudy
61°F / 16°C 61°F / 16°C 100% 29.98 in
(1015 mb)
Calm - 10SM
01:53
Mostly Cloudy
63°F / 17°C 61°F / 16°C 94% 30.01 in
(1016 mb)
NNW 4.6 mph
(NNW 7 kph)
0.01 in
(0.25 mm)
10SM
00:53
Mostly Cloudy
Light Rain
64°F / 18°C 61°F / 16°C 88% 30.01 in
(1016 mb)
ENE 6.9 mph
(ENE 11 kph)
0.05 in
(1.27 mm)
9SM
Time Weather Temperature Dewpoint Humidity Pressure Winds Precip Visibility


Weather for websites

WeatherForYou.com, LLC is not responsible for any damages or problems caused by this service. Current weather conditions are obtained from the closest station including government and personal stations which may have varying degrees of accuracy. Weather forecasts are derived from the NOAA NDFD. Like all things, this site belongs to Jesus Christ... He just trusts me to maintain it. If you have any questions or comments email webmaster@weatherforyou.com

Copyright © 2014, WeatherForYou.com LLC. All rights reserved.